Content
SEND FEEDBACK

Daily
Averages
Monthly
Summary
United States of America

SUNDANCE, WYOMING


Home > North America > United States > Wyoming
Elevation: 4908 feet     Latitude: 44 24N     Longitude: 104 21W

WEATHER
 
SELECT A DAY
Number of Records: 227,931;   Date Range: 1/2/95 - 9/20/14
 
SHARE

PRINT THIS DATA

[ ← Previous Day ]
WEATHER ALMANAC - FEBRUARY 16, 2013
[ Next Day → ]
[ °C ]   °F
Weather ElementAverageHighLow
Temperature41.4 °F48.2 °F (1:35 pm)35.6 °F (9:55 pm)
Dewpoint24 °F26.6 °F (11:55 am)19.4 °F (12:35 am)
Humidity50.3 %60 % (9:55 pm)40 % (4:15 pm)
Barometer29.94 in30.01 in (12:35 am)29.78 in (11:55 pm)
Wind Speed13.8 mph21.9 mph (9:15 am)
Wind Gust32.2 mph (12:55 pm)
Weather ElementAverage
Visibility10 mi
Wind DirectionWSW (249.5 °)

Weather ElementTotal
Precipitation---
Heating Degree Days23.1 (Base 65)
Averaged from 62 records on February 16, 2013
WEATHER CONDITIONS BREAKOUT
WIND DIRECTION BREAKOUT
WEATHER BY HOUR - FEBRUARY 16, 2013
[ °C ]   °F
Local TimeTemperatureDewpointHumidityBarometerVisibilityWind DirectionWind SpeedGust SpeedPrecipitationEventsConditions
12:35 AM37.4 °F19.4 °F48 %30.01 in10.0 miWest (270°)12.7 mph23.0 mphOvercast
12:55 AM37.4 °F19.4 °F48 %30.01 in10.0 miWest (270°)17.3 mph23.0 mphOvercast
1:15 AM37.4 °F19.4 °F48 %30.01 in10.0 miWest (270°)16.1 mph23.0 mphOvercast
1:35 AM37.4 °F19.4 °F48 %30.01 in10.0 miWest (270°)12.7 mph20.7 mphOvercast
1:55 AM37.4 °F21.2 °F52 %30.01 in10.0 miWest (280°)17.3 mph21.9 mphOvercast
2:15 AM39.2 °F21.2 °F49 %30.01 in10.0 miWest (270°)19.6 mph28.8 mphOvercast
2:35 AM39.2 °F23.0 °F52 %30.01 in10.0 miWest (270°)17.3 mph26.5 mphOvercast
2:55 AM39.2 °F23.0 °F52 %30.00 in10.0 miWest (280°)17.3 mph25.3 mphOvercast
3:15 AM39.2 °F23.0 °F52 %30.01 in10.0 miWest (280°)13.8 mph24.2 mphOvercast
3:35 AM39.2 °F23.0 °F52 %30.01 in10.0 miWest (280°)19.6 mph31.1 mphOvercast
3:55 AM39.2 °F23.0 °F52 %30.00 in10.0 miWest (280°)18.4 mph25.3 mphOvercast
4:15 AM39.2 °F23.0 °F52 %30.00 in10.0 miWest (280°)19.6 mph23.0 mphOvercast
4:35 AM39.2 °F23.0 °F52 %30.00 in10.0 miWest (270°)15.0 mph20.7 mphOvercast
4:55 AM39.2 °F23.0 °F52 %30.00 in10.0 miWest (270°)13.8 mph23.0 mphOvercast
5:15 AM39.2 °F23.0 °F52 %30.00 in10.0 miWest (280°)13.8 mph20.7 mphOvercast
5:35 AM37.4 °F23.0 °F56 %30.00 in10.0 miWest (280°)15.0 mph19.6 mphOvercast
5:55 AM39.2 °F23.0 °F52 %29.99 in10.0 miWest (280°)17.3 mph26.5 mphOvercast
6:35 AM39.2 °F23.0 °F52 %30.00 in10.0 miWest (280°)12.7 mph20.7 mphOvercast
6:55 AM39.2 °F23.0 °F52 %29.99 in10.0 miWest (280°)13.8 mph21.9 mphOvercast
7:15 AM39.2 °F23.0 °F52 %29.98 in10.0 miWest (280°)17.3 mph21.9 mphOvercast
7:35 AM39.2 °F23.0 °F52 %29.97 in10.0 miWest (270°)17.3 mph25.3 mphOvercast
7:55 AM39.2 °F24.8 °F56 %29.98 in10.0 miWNW (290°)16.1 mph21.9 mphOvercast
8:15 AM39.2 °F24.8 °F56 %29.97 in10.0 miWNW (290°)16.1 mph23.0 mphMostly Cloudy
8:35 AM39.2 °F23.0 °F52 %29.98 in10.0 miWest (280°)17.3 mph26.5 mphScattered Clouds
8:55 AM41.0 °F24.8 °F53 %29.98 in10.0 miWest (280°)20.7 mph27.6 mphPartly Cloudy
9:15 AM41.0 °F24.8 °F53 %29.98 in10.0 miWest (280°)21.9 mph27.6 mphPartly Cloudy
11:55 AM46.4 °F26.6 °F46 %29.98 in10.0 miWest (280°)21.9 mph29.9 mphClear
12:15 PM46.4 °F26.6 °F46 %29.97 in10.0 miWNW (290°)20.7 mph28.8 mphClear
12:35 PM46.4 °F26.6 °F46 %29.96 in10.0 miWNW (290°)20.7 mph29.9 mphClear
12:55 PM46.4 °F26.6 °F46 %29.96 in10.0 miWNW (290°)21.9 mph32.2 mphClear
1:15 PM46.4 °F26.6 °F46 %29.96 in10.0 miWest (280°)17.3 mph26.5 mphClear
1:35 PM48.2 °F26.6 °F43 %29.95 in10.0 miWNW (300°)15.0 mph24.2 mphClear
1:55 PM48.2 °F26.6 °F43 %29.94 in10.0 miWest (270°)19.6 mph29.9 mphClear
2:15 PM48.2 °F26.6 °F43 %29.94 in10.0 miWest (270°)17.3 mph26.5 mphClear
2:35 PM48.2 °F26.6 °F43 %29.93 in10.0 miWest (270°)20.7 mph27.6 mphClear
2:55 PM48.2 °F26.6 °F43 %29.93 in10.0 miWest (280°)19.6 mph26.5 mphClear
3:15 PM48.2 °F26.6 °F43 %29.92 in10.0 miWest (280°)13.8 mph24.2 mphClear
3:35 PM48.2 °F26.6 °F43 %29.92 in10.0 miWest (280°)15.0 mph26.5 mphClear
3:55 PM48.2 °F26.6 °F43 %29.92 in10.0 miWest (270°)17.3 mph24.2 mphClear
4:15 PM48.2 °F24.8 °F40 %29.91 in10.0 miWest (280°)15.0 mph19.6 mphClear
4:35 PM48.2 °F24.8 °F40 %29.91 in10.0 miWest (280°)13.8 mph18.4 mphClear
4:55 PM48.2 °F24.8 °F40 %29.91 in10.0 miWest (280°)13.8 mph23.0 mphClear
5:15 PM46.4 °F24.8 °F43 %29.91 in10.0 miWest (280°)15.0 mphClear
5:35 PM46.4 °F24.8 °F43 %29.90 in10.0 miWest (280°)10.4 mphClear
5:55 PM44.6 °F24.8 °F46 %29.90 in10.0 miWest (260°)5.8 mphClear
6:15 PM41.0 °F24.8 °F53 %29.90 in10.0 miWest (260°)6.9 mphClear
6:35 PM39.2 °F24.8 °F56 %29.90 in10.0 miWest (270°)8.1 mphClear
6:55 PM39.2 °F24.8 °F56 %29.89 in10.0 miWest (260°)6.9 mphClear
7:15 PM39.2 °F24.8 °F56 %29.89 in10.0 miWSW (240°)10.4 mphClear
7:35 PM39.2 °F24.8 °F56 %29.88 in10.0 miSW (230°)10.4 mphClear
7:55 PM41.0 °F24.8 °F53 %29.88 in10.0 miSW (230°)11.5 mphClear
8:15 PM39.2 °F24.8 °F56 %29.87 in10.0 miSW (230°)12.7 mphClear
8:35 PM41.0 °F24.8 °F53 %29.86 in10.0 miSW (230°)11.5 mphClear
8:55 PM39.2 °F24.8 °F56 %29.86 in10.0 miSW (230°)10.4 mphClear
9:15 PM39.2 °F24.8 °F56 %29.85 in10.0 miSSW (210°)10.4 mphClear
9:55 PM35.6 °F23.0 °F60 %29.84 in10.0 miCalmClear
10:15 PM35.6 °F23.0 °F60 %29.83 in10.0 miENE (60°)4.6 mphClear
10:35 PM37.4 °F23.0 °F56 %29.82 in10.0 miCalmClear
10:55 PM35.6 °F23.0 °F60 %29.82 in10.0 miCalmClear
11:15 PM37.4 °F23.0 °F56 %29.81 in10.0 miWest (260°)4.6 mphClear
11:35 PM37.4 °F23.0 °F56 %29.80 in10.0 miWSW (240°)4.6 mphClear
11:55 PM39.2 °F21.2 °F49 %29.78 in10.0 miCalmClear
Hourly data recorded from KSPF, located miles away from Sundance, Wyoming







STORIES FROM OUR PARTNERS